カタログに戻る

STARLINK-37001

運用中通信VLEO
NORAD 68330·PAYLOAD·🇺🇸 United States

打ち上げ Mar 22, 2026 から Cape Canaveral Space Force Station

Loading…

次のパス (今後24時間)

TLE

最新Source: CelesTrak SupGP

元期: Sep 14, 2026, 23:06 UTC

1 68330C 26059K   26257.96298611 -.00032789  00000+0 -96839-3 0  2571
2 68330  53.1586 187.4505 0001399  90.9795  63.6940 15.34418701    14

AllMySatでSTARLINK-37001をリアルタイム追跡

Download on the App Store